www.pogodaiklimat.ru

Погода и климат >> Архив погоды >> Россия >> Якутия >> Оймякон


АРХИВ ПОГОДЫ в Оймяконе

Время (UTC), дата Ветер
(напр.,м/с)
 
Видим.   Явления Облачность Т
(С)
Тd
(С)
f
(%)
Тe
(С)
Тes
(С)
Комфортность P
(гПа)
Po
(гПа)
Тmin
(С)
Tmax
(С)
R
(мм)
R24
(мм)
S
(см)
09 12.04 С 3 50 км 9/0
[Cs]
-2.8 -10.3 56 -7 -7 тепло 1006.1 916.9 -0.6
12 12.04 В 1 50 км 3/0
[Ci fib]
-6.8 -13.0 61 -9 -9 тепло 1008.6 917.9
15 12.04 штиль 0 50 км 3/0
[Ci fib]
-14.6 -17.3 80 -15 -15 тепло 1012.1 918.4
18 12.04 СВ 2 50 км 8/0
[Cs]
-13.8 -15.1 90 -19 -19 по сезону 1012.6 919.2
21 12.04 СВ 2 50 км 10/0
[Cs]
-13.6 -14.9 90 -18 -17 по сезону 1013.0 919.5 -17.1 15
00 13.04 С 3 50 км 10/0
[Cs]
-5.3 -9.9 70 -11 -7 по сезону 1009.6 919.3
03 13.04 Ю 4 50 км 10/1 1000 м
[Cu hum Cs]
-0.3 -10.5 46 -5 -1 тепло 1006.7 918.2
06 13.04 Ю 4 50 км 10/3 1000 м
[Cu hum Cs]
-0.2 -9.4 50 -5 -3 по сезону 1006.5 918.0
09 13.04 Ю 4 50 км 10/3 1000 м
[Sc diur, vesp As trans]
-2.6 -10.0 57 -8 -8 по сезону 1007.9 918.5 +0.2
12 13.04 З 1 50 км 10/1 1500 м
[Sc Cs]
-4.9 -11.2 61 -7 -7 тепло 1010.3 920.1
15 13.04 Ю 2 50 км 10/1 1500 м
[Sc Cs]
-8.1 -12.7 69 -12 -12 тепло 1012.3 920.7
18 13.04 ЮВ 1 50 км 6/0
[Ci fib]
-12.3 -14.3 85 -15 -15 тепло 1013.6 920.6
21 13.04 СВ 2 50 км 9/0
[Ci sp]
-12.1 -13.4 90 -17 -16 по сезону 1013.5 920.5 -13.3 15
00 14.04 З 1 50 км 8/0
[Cc]
-6.1 -11.5 66 -8 -2 тепло 1010.3 919.5
03 14.04 ЮВ 2 50 км 8/0
[Ac lent Cs]
-1.3 -8.9 56 -5 0 тепло 1006.4 917.6
06 14.04 Ю 4 50 км 10/0
[Ac lent Cs]
-0.2 -8.9 52 -5 -3 по сезону 1005.0 916.6
09 14.04 ЮВ 4
{11}
50 км 10/0
[Ac As]
-2.3 -10.5 53 -8 -8 по сезону 1006.4 917.3 +0.7
12 14.04 Ю 2 50 км 10/0
[Ac As]
-5.4 -11.4 63 -9 -9 тепло 1008.8 918.5
15 14.04 В 2 50 км 10/0
[Ac As]
-7.0 -11.7 69 -11 -11 тепло 1008.8 917.9
18 14.04 ЮВ 2 50 км 3/0
[Ac trans]
-11.1 -14.7 75 -16 -16 тепло 1009.6 917.3
21 14.04 ЮЗ 1 50 км 4/0
[Ac trans Cc]
-10.2 -13.8 75 -12 -11 тепло 1008.8 916.9 -13.9 13
00 15.04 Ю 4 50 км осадки на расстоянии 10/0
[Ac As]
-6.2 -13.7 55 -12 -11 по сезону 1007.4 916.9
03 15.04 ЮВ 5 50 км 9/1 1000 м
[Cu hum Ac trans Cs]
-4.1 -14.1 46 -10 -8 по сезону 1006.0 916.3
06 15.04 Ю 6
{11}
50 км осадки на расстоянии 8/8 1000 м
[Cb cap Ci fib]
-3.7 -13.5 47 -11 -10 прохладно 1005.7 916.2
09 15.04 Ю 5
{10}
50 км 3/1 1000 м
[Sc diur, vesp Ci fib]
-4.0 -14.6 43 -10 -10 по сезону 1006.7 916.9 -2.5
12 15.04 Ю 3 50 км 1/0
[Ci fib]
-8.5 -13.8 66 -14 -14 по сезону 1009.2 917.7
15 15.04 СВ 2 50 км 3/0
[Ci fib]
-12.9 -15.6 80 -18 -18 по сезону 1011.7 918.7
18 15.04 СВ 25 50 км 3/0
[Ci fib]
-14.6 -16.6 85 -31 -31 опасность
обморожения
1013.7 919.8
21 15.04 СВ 2 50 км 4/0
[Ci fib]
-1.2 -1.6 97 -5 -4 тепло 1013.3 920.4 -17.0 13
00 16.04 ЮВ 4 50 км 10/0
[Cs]
-5.8 -13.6 54 -12 -8 по сезону 1011.5 920.8
03 16.04 Ю 5
{10}
50 км 10/1 1000 м
[Cu hum Cc]
-3.0 -11.6 51 -9 -6 по сезону 1009.9 920.4
06 16.04 Ю 5
{11}
50 км 9/4
[Cb cap Ac As Cs]
-2.3 -11.5 49 -8 -7 по сезону 1009.3 919.9
09 16.04 ЮВ 4 50 км 10/3 1000 м
[Sc Ac As Cs]
-3.7 -11.8 53 -9 -9 по сезону 1010.8 920.8 -1.3
12 16.04 В 3 50 км 10/0
[As trans]
-5.5 -12.1 60 -11 -11 по сезону 1011.8 921.1
15 16.04 В 5 50 км 10/0
[As op]
-5.5 -12.1 60 -12 -12 тепло 1011.7 921.0
18 16.04 В 6
{11}
50 км 10/0
[As op]
-6.0 -12.3 61 -14 -14 тепло 1009.9 919.2
21 16.04 В 5
{12}
50 км 10/1 1000 м
[Sc As op]
-5.0 -11.3 61 -12 -12 тепло 1008.0 918.0 -6.0 11
00 17.04 ЮВ 7-11
{11}
50 км 10/1 1500 м
[Sc Ac As]
-3.3 -10.2 59 -11 -10 по сезону 1006.7 917.3
03 17.04 ЮВ 9-13
{15}
50 км 10/3 1000 м
[Cb cap Ac trans Cs]
-0.6 -7.8 58 -8 -8 по сезону 1005.1 916.5
06 17.04 ЮВ 9-16
{17}
50 км 10/3 1000 м
[Cb cap Ac trans Ci]
+0.6 -7.6 54 -6 -6 по сезону 1002.8 914.9
09 17.04 ЮВ 7-12
{17}
50 км 10/4 1000 м
[Sc Ci]
+0.3 -7.6 55 -6 -6 по сезону 1002.8 914.8 +0.8
12 17.04 ЮВ 4
{12}
50 км 10/8 1000 м
[Sc Ci]
-1.0 -7.1 63 -6 -6 тепло 1004.2 915.7
15 17.04 ЮВ 4 50 км 10/3 1000 м
[Sc Cs]
-1.7 -7.0 67 -7 -7 тепло 1002.8 914.4
18 17.04 ЮВ 3 50 км 8/6 1000 м
[Sc Ci fib]
-4.5 -9.2 70 -10 -10 тепло 1004.1 914.5
21 17.04 ЮВ 4 50 км 8/3 1000 м
[Sc Ci]
-4.7 -10.0 66 -11 -10 тепло 1004.9 915.2 -5.5 9
00 18.04 Ю 4 50 км 8/4 1000 м
[Cb cap Ci]
-0.2 -9.4 50 -5 -3 тепло 1004.3 916.0
03 18.04 З 4 50 км осадки на расстоянии 9/8 1000 м
[Cb cap Ci fib]
+1.0 -9.8 44 -3 -2 тепло 1005.7 917.7
06 18.04 СЗ 6
{11}
50 км осадки на расстоянии {ливн. осадки} 8/6 1000 м
[Cb cap Ci fib]
+0.9 -8.5 49 -5 -4 по сезону 1008.5 920.1
09 18.04 СЗ 4
{11}
50 км 8/5 1000 м
[Cb cap Ci fib]
-2.1 -12.2 46 -7 -7 по сезону 1012.6 922.9 +1.9 0.0
12 18.04 З 3 50 км 10/5 1000 м
[Sc Ac trans Ci]
-6.1 -13.0 58 -11 -11 по сезону 1016.9 925.5
15 18.04 З 1 50 км 9/0
[Ac trans Ci fib]
-8.8 -13.7 68 -11 -11 тепло 1019.5 927.1
18 18.04 З 2 50 км 10/0
[Ac trans Cs]
-11.4 -16.7 65 -16 -16 по сезону 1021.3 927.9
21 18.04 З 2 50 км 10/0
[Cs]
-10.3 -14.7 70 -15 -14 по сезону 1021.7 928.6 -12.2 9
00 19.04 штиль 0 50 км 10/0
[Ac As Cs]
-6.3 -12.3 62 -7 -3 по сезону 1020.3 928.6
03 19.04 СВ 2 20 км слаб. снег 10/0
[As op Cs]
-4.7 -10.4 64 -9 -6 по сезону 1018.8 927.8
06 19.04 С 1 20 км слаб. снег 10/0
[As op]
-4.0 -7.0 80 -6 -5 по сезону 1017.6 927.0

 

Местоположение метеостанции Оймякон (Якутия, Россия): широта 63.25 долгота 143.10 высота над уровнем моря 740 м.

В архиве по умолчанию представлена погода в Оймяконе за последнюю неделю. Архивные данные за месяц целиком и за предыдущие месяцы, начиная с января 2011 года, Вы можете получить, выбрав интересующий диапазон дат из раскрывающегося списка и нажав кнопку "Ввод!".


*Определитесь, кто Вы:
робот инопланетянин человек

Внимание! Время в таблицах - всемирное. Для получения местного времени необходимо прибавить поправку, которая равна 10 ч.

Смотрите также архив погоды в соседних городах и на ближайших метеорологических станциях:

Погода в Агаякане (Якутия, Россия) (71 км)
Погода в Юртах (Якутия, Россия) (110 км)
Погода в Делянкире (Якутия, Россия) (140 км)
Погода в Усть-Нере (Якутия, Россия) (142 км)
Погода в Восточной (Якутия, Россия) (175 км)
Погода в Сусумане (Магаданская область, Россия) (258 км)
Погода в Колымской (Магаданская область, Россия) (278 км)
Погода в Уеге (Хабаровский край, Россия) (282 км)
Погода в Теплом Ключе (Якутия, Россия) (322 км)
Погода в Ягодной (Магаданская область, Россия) (340 км)

Пояснения к столбцам:

Ветер - указаны скорость ветра в м/с - средняя за 10 мин, порывы в срок и между сроками (в фигурных скобках) и направление, откуда дует ветер: С - северный, СВ - северо-восточный, В - восточный, ЮВ - юго-восточный, Ю - южный, ЮЗ - юго-западный, З - западный, СЗ - северо-западный.
Видимость - горизонтальная дальность видимости в метрах или километрах. При видимости от 1 до 10 км при отсутствии осадков обычно наблюдается дымка, при ухудшении видимости до 1 км и менее - туман. В сухую погоду видимость может ухудшаться дымом, пылью или мглою.
Явления - указаны атмосферные явления, наблюдавшиеся в срок или в последний час перед сроком; фигурными скобками обозначены явления, наблюдавшиеся между сроками (за 1-3 часа до срока); квадратными скобками обозначены град или гололедные отложения с указанием их диаметра в мм.
Облачность - указаны через наклонную черту общая и нижняя облачность в баллах и высота нижней границы облаков в метрах; квадратными скобками обозначены формы облаков: Ci - перистые, Cs - перисто-слоистые, Cc - перисто-кучевые, Ac - высококучевые, As - высокослоистые, Sc - слоисто-кучевые, Ns - слоисто-дождевые, Cu - кучевые, Cb - кучево-дождевые. Подробнее классификацию облаков см. в Атласе облаков (PDF).
T - Температура воздуха - температура, измеренная на высоте 2 м над землей.
Td - Температура точки росы - температура, при понижении до которой содержащийся в воздухе водяной пар достигнет насыщения.
f - Относительная влажность воздуха - влажноcть воздуха, измеренная на высоте 2 м над землей.
Te - Эффективная температура - температура, которую ощущает одетый по сезону человек в тени. Характеристика душности погоды. При расчете учитывается влияние влажности воздуха и скорости ветра на теплоощущения человека.
Tes - Эффективная температура на солнце - температура, которую ощущает человек, с поправкой на солнечный нагрев. Характеристика знойности погоды. Зависит от высоты солнца над горизонтом, облачности и скорости ветра. Ночью, в пасмурную погоду, а также при ветре 12 м/с и более поправка равна нулю.
P - Атмосферное давление - приведенное к уровню моря атмосферное давление.
Po - Атмосферное давление - измеренное на уровне метеостанции атмосферное давление.
Tmin - Минимальная температура - минимум температуры воздуха на высоте 2 м над землей.
Tmax - Максимальная температура - максимум температуры воздуха на высоте 2 м над землей.
R - Количество осадков - Количество выпавших осадков за период времени, мм. При наведении курсора мыши на число - период времени, за который выпало указанное количество осадков.
R24 - Количество осадков - Количество выпавших осадков за 24 часа, мм.
S - Снежный покров - Высота снежного покрова, см. При наведении курсора мыши на число - состояние снежного покрова и степень покрытия местности в баллах.